Погода в Кунамбле

Австралия     30°57′11″S   148°22′58″E
темп.,
°C
ветер,
м/с
пор.,
м/с
влажн.,
%
обл.,
%
осадки,
мм/ч
давл.,
гПа
погр.,
м
15 апреля, чт
чт1501:00+18св223591 0.0 101513
04:00+18св2236100 0.0 101512
07:00+17вюв124697 0.0 101611
10:00+22ю22280 0.0 1017622
13:00+25юз33235 0.0 10141358
16:00+25юз55309 0.0 10131772
19:00+20ююз464012 0.0 101578
22:00+18ю494184 0.0 1017157
16 апреля, пт
пт1601:00+17ю6124594 0.0 1017368
04:00+14ю510529 0.0 1017211
07:00+13ю5115428 0.0 1019215
10:00+19ююв783487 0.0 1020882
13:00+22ю6626100 0.0 10171329
16:00+22ю4527100 0.0 10161041
19:00+19ю4536100 0.0 101888
22:00+18в2339100 0.0 101942
17 апреля, сб
сб1701:00+17всв61060100 0.0 1019373
04:00+15св5769100 0.1 1019245
07:00+13с5786100 0.4 1022314
10:00+14сз117790 0.7 1021221
13:00+15зсз127084 0.1 1019290
16:00+19ююв455094 0.1 10181140
19:00+16ююв4765100 0.0 1020293
22:00+13ююв33751 0.0 102032
18 апреля, вс
вс1801:00+12ю45773 0.0 102074
04:00+11ю47794 0.0 102099
07:00+11ю47830 0.0 1021123
10:00+18ю44523 0.0 1021897
13:00+21ююз44360 0.0 10181780
16:00+21ююз44330 0.0 10171903
19:00+16ююз45440 0.0 101860
22:00+14ю34460 0.0 101930
19 апреля, пн
пн1901:00+13ю44500 0.0 101936
04:00+12ююв33570 0.0 101823
07:00+12ю22614 0.0 101916
10:00+18з11430 0.0 1019585
13:00+22з3333100 0.0 10161711
16:00+22зюз332811 0.0 10151688
19:00+16юз33370 0.0 101613
22:00+14ю224397 0.0 101711